WWW24 KXTA-KFTK

Flight info

Callsign WWW24
Flight time 3h 5m
Altitude 30000
Route ROYLL NORRA J100 BCE J60 HVE J28 HBU J146 GLD J80 MCI J24 STL J8 IMPEL JRICO
Aircraft B736/M-SDE2E3FGHIRWXY/LB1

Departure

Time 2026-04-26 17:15
Airport Homey (Area 51) Airport (KXTA)

Arrival

Time 2026-04-26 20:21
Airport Godman Army Air Field (KFTK)
Time Latitude Longitude Altitude Speed Heading
2026-04-26 16:58 37.24533 -115.81676 4466 ft 0 kts 77°
2026-04-26 17:03 37.24536 -115.81662 4471 ft 3 kts 77°
2026-04-26 17:04 37.24541 -115.81637 4465 ft 3 kts 77°
2026-04-26 17:04 37.24542 -115.81631 4465 ft 0 kts 77°
2026-04-26 17:06 37.24548 -115.81613 4468 ft 4 kts 67°
2026-04-26 17:07 37.24556 -115.81565 4465 ft 7 kts 84°
2026-04-26 17:07 37.24560 -115.81493 4466 ft 9 kts 86°
2026-04-26 17:07 37.24564 -115.81420 4466 ft 8 kts 87°
2026-04-26 17:07 37.24567 -115.81349 4467 ft 8 kts 86°
2026-04-26 17:08 37.24570 -115.81279 4467 ft 8 kts 87°
2026-04-26 17:08 37.24573 -115.81212 4468 ft 8 kts 85°
2026-04-26 17:08 37.24613 -115.81176 4468 ft 7 kts 22°
2026-04-26 17:08 37.24659 -115.81152 4472 ft 7 kts 22°
2026-04-26 17:09 37.24704 -115.81129 4472 ft 7 kts 22°
2026-04-26 17:09 37.24733 -115.81114 4472 ft 7 kts 21°
2026-04-26 17:09 37.24791 -115.81085 4472 ft 7 kts 21°
2026-04-26 17:09 37.24834 -115.81064 4473 ft 7 kts 21°
2026-04-26 17:10 37.24876 -115.81043 4475 ft 6 kts 21°
2026-04-26 17:10 37.24917 -115.81023 4477 ft 6 kts 22°
2026-04-26 17:10 37.24951 -115.80991 4474 ft 6 kts 48°
2026-04-26 17:10 37.24977 -115.80935 4474 ft 9 kts 68°
2026-04-26 17:11 37.24999 -115.80854 4473 ft 10 kts 81°
2026-04-26 17:11 37.24973 -115.80772 4472 ft 10 kts 117°
2026-04-26 17:11 37.24942 -115.80695 4471 ft 10 kts 117°
2026-04-26 17:11 37.24911 -115.80620 4469 ft 10 kts 117°
2026-04-26 17:12 37.24841 -115.80450 4459 ft 11 kts 116°
2026-04-26 17:12 37.24803 -115.80356 4453 ft 13 kts 117°
2026-04-26 17:13 37.24749 -115.80211 4444 ft 8 kts 95°
2026-04-26 17:13 37.24765 -115.80140 4442 ft 9 kts 67°
2026-04-26 17:13 37.24783 -115.80016 4441 ft 4 kts 103°
2026-04-26 17:14 37.24769 -115.79996 4442 ft 4 kts 147°
2026-04-26 17:14 37.24700 -115.79959 4444 ft 28 kts 157°
2026-04-26 17:14 37.24264 -115.79729 4449 ft 107 kts 156°
2026-04-26 17:15 37.22223 -115.78627 5029 ft 193 kts 160°
2026-04-26 17:15 37.20934 -115.77957 5836 ft 207 kts 161°
2026-04-26 17:15 37.19619 -115.77308 6703 ft 199 kts 162°
2026-04-26 17:16 37.18315 -115.76676 7333 ft 203 kts 162°
2026-04-26 17:16 37.16958 -115.76030 7798 ft 217 kts 164°
2026-04-26 17:16 37.15449 -115.75363 8085 ft 241 kts 165°
2026-04-26 17:16 37.13810 -115.74678 8611 ft 255 kts 164°
2026-04-26 17:17 37.12108 -115.73897 9233 ft 267 kts 161°
2026-04-26 17:17 37.10334 -115.73035 9767 ft 282 kts 160°
2026-04-26 17:17 37.08452 -115.72118 10250 ft 297 kts 161°
2026-04-26 17:17 37.06479 -115.71161 10774 ft 312 kts 160°
2026-04-26 17:18 37.04410 -115.70166 11316 ft 325 kts 160°
2026-04-26 17:18 37.02255 -115.69136 11834 ft 338 kts 160°
2026-04-26 17:18 37.00022 -115.68072 12371 ft 350 kts 160°
2026-04-26 17:18 36.97711 -115.66980 12919 ft 360 kts 160°
2026-04-26 17:19 36.92880 -115.64718 13948 ft 380 kts 160°
2026-04-26 17:19 36.90375 -115.63538 14472 ft 388 kts 161°
2026-04-26 17:19 36.87827 -115.62322 14972 ft 396 kts 161°
2026-04-26 17:20 36.85227 -115.61076 15485 ft 403 kts 160°
2026-04-26 17:20 36.84341 -115.60650 15660 ft 406 kts 160°
2026-04-26 17:20 36.79962 -115.58357 16506 ft 418 kts 149°
2026-04-26 17:20 36.77828 -115.55864 17024 ft 426 kts 125°
2026-04-26 17:21 36.76592 -115.52500 17564 ft 431 kts 103°
2026-04-26 17:21 36.76443 -115.48782 18095 ft 433 kts 80°
2026-04-26 17:21 36.77234 -115.45171 18585 ft 433 kts 68°
2026-04-26 17:21 36.78355 -115.41671 19052 ft 436 kts 65°
2026-04-26 17:22 36.79548 -115.38176 19522 ft 439 kts 65°
2026-04-26 17:22 36.80719 -115.34640 19999 ft 443 kts 66°
2026-04-26 17:22 36.81751 -115.31012 20495 ft 446 kts 72°
2026-04-26 17:22 36.82420 -115.27217 21016 ft 450 kts 81°
2026-04-26 17:23 36.82698 -115.23322 21523 ft 452 kts 87°
2026-04-26 17:23 36.82679 -115.19386 22057 ft 454 kts 91°
2026-04-26 17:23 36.82480 -115.15453 22599 ft 455 kts 94°
2026-04-26 17:23 36.82192 -115.11507 23147 ft 457 kts 95°
2026-04-26 17:24 36.81873 -115.07554 23596 ft 458 kts 95°
2026-04-26 17:24 36.81553 -115.03598 24062 ft 459 kts 95°
2026-04-26 17:24 36.81243 -114.99627 24552 ft 460 kts 95°
2026-04-26 17:24 36.80943 -114.95654 25036 ft 461 kts 95°
2026-04-26 17:25 36.80654 -114.91723 25516 ft 461 kts 95°
2026-04-26 17:25 36.80361 -114.87685 26019 ft 462 kts 95°
2026-04-26 17:25 36.80075 -114.83727 26338 ft 467 kts 95°
2026-04-26 17:25 36.79780 -114.79665 26602 ft 473 kts 95°
2026-04-26 17:26 36.79481 -114.75558 26864 ft 478 kts 95°
2026-04-26 17:26 36.79176 -114.71405 27133 ft 483 kts 95°
2026-04-26 17:26 36.78866 -114.67214 27410 ft 487 kts 95°
2026-04-26 17:26 36.78551 -114.62990 27674 ft 491 kts 95°
2026-04-26 17:27 36.78233 -114.58728 27953 ft 495 kts 95°
2026-04-26 17:27 36.77911 -114.54438 28225 ft 498 kts 95°
2026-04-26 17:27 36.77585 -114.50121 28506 ft 501 kts 95°
2026-04-26 17:27 36.77256 -114.45781 28780 ft 504 kts 95°
2026-04-26 17:28 36.76925 -114.41420 29063 ft 506 kts 96°
2026-04-26 17:28 36.76591 -114.37051 29356 ft 507 kts 96°
2026-04-26 17:28 36.76391 -114.32658 29582 ft 509 kts 88°
2026-04-26 17:28 36.76829 -114.28276 29721 ft 512 kts 77°
2026-04-26 17:29 36.77888 -114.24040 29728 ft 511 kts 66°
2026-04-26 17:29 36.78377 -114.22670 29723 ft 509 kts 62°
2026-04-26 17:29 36.83196 -114.12717 29725 ft 499 kts 56°
2026-04-26 17:30 36.86836 -114.05384 29732 ft 496 kts 56°
2026-04-26 17:30 36.90454 -113.97941 29740 ft 506 kts 57°
2026-04-26 17:31 36.94082 -113.90380 29736 ft 507 kts 57°
2026-04-26 17:31 36.97694 -113.82818 29774 ft 506 kts 57°
2026-04-26 17:32 37.01303 -113.75254 29790 ft 506 kts 57°
2026-04-26 17:32 37.04909 -113.67686 29825 ft 507 kts 57°
2026-04-26 17:33 37.08519 -113.60093 29837 ft 508 kts 57°
2026-04-26 17:34 37.13942 -113.48654 29830 ft 510 kts 57°
2026-04-26 17:34 37.16947 -113.42296 29745 ft 510 kts 58°
2026-04-26 17:35 37.20571 -113.34616 29763 ft 512 kts 58°
2026-04-26 17:35 37.24189 -113.26927 29749 ft 512 kts 58°
2026-04-26 17:36 37.27799 -113.19238 29742 ft 511 kts 58°
2026-04-26 17:36 37.31404 -113.11541 29749 ft 511 kts 58°
2026-04-26 17:37 37.35005 -113.03838 29752 ft 511 kts 58°
2026-04-26 17:37 37.38602 -112.96122 29752 ft 512 kts 58°
2026-04-26 17:38 37.43994 -112.84523 29739 ft 512 kts 58°
2026-04-26 17:38 37.47589 -112.76768 29738 ft 513 kts 58°
2026-04-26 17:39 37.51178 -112.69007 29707 ft 513 kts 59°
2026-04-26 17:39 37.54767 -112.61226 29716 ft 514 kts 59°
2026-04-26 17:40 37.57747 -112.54750 29707 ft 514 kts 59°
2026-04-26 17:40 37.61934 -112.45632 29763 ft 513 kts 59°
2026-04-26 17:41 37.65505 -112.37834 29788 ft 513 kts 59°
2026-04-26 17:41 37.69049 -112.30080 29824 ft 513 kts 59°
2026-04-26 17:42 37.72644 -112.22298 29844 ft 513 kts 59°
2026-04-26 17:42 37.76258 -112.14532 29845 ft 513 kts 59°
2026-04-26 17:43 37.79870 -112.06744 29829 ft 514 kts 59°
2026-04-26 17:43 37.83482 -111.98918 29798 ft 516 kts 59°
2026-04-26 17:44 37.87098 -111.91056 29755 ft 517 kts 59°
2026-04-26 17:44 37.90716 -111.83175 29710 ft 518 kts 59°
2026-04-26 17:45 37.94327 -111.75290 29697 ft 518 kts 60°
2026-04-26 17:45 37.97935 -111.67391 29706 ft 517 kts 60°
2026-04-26 17:46 38.01524 -111.59515 29677 ft 514 kts 60°
2026-04-26 17:46 38.05087 -111.51677 29652 ft 512 kts 60°
2026-04-26 17:47 38.08035 -111.45177 29642 ft 511 kts 60°
2026-04-26 17:47 38.12164 -111.36052 29649 ft 509 kts 60°
2026-04-26 17:48 38.15686 -111.28247 29632 ft 509 kts 60°
2026-04-26 17:48 38.19197 -111.20445 29621 ft 509 kts 60°
2026-04-26 17:49 38.22708 -111.12630 29619 ft 509 kts 61°
2026-04-26 17:49 38.26216 -111.04803 29644 ft 511 kts 61°
2026-04-26 17:50 38.29731 -110.96934 29684 ft 512 kts 61°
2026-04-26 17:50 38.33255 -110.89029 29721 ft 514 kts 61°
2026-04-26 17:51 38.36777 -110.81107 29785 ft 512 kts 61°
2026-04-26 17:51 38.40120 -110.73178 29757 ft 509 kts 69°
2026-04-26 17:52 38.41901 -110.64526 29774 ft 503 kts 86°
2026-04-26 17:52 38.42086 -110.60031 29618 ft 500 kts 91°
2026-04-26 17:52 38.42159 -110.55594 29604 ft 500 kts 92°
2026-04-26 17:53 38.42286 -110.46791 29593 ft 500 kts 92°
2026-04-26 17:54 38.42546 -110.33348 29609 ft 512 kts 92°
2026-04-26 17:54 38.42746 -110.24287 29594 ft 511 kts 92°
2026-04-26 17:55 38.42941 -110.15237 29613 ft 510 kts 92°
2026-04-26 17:55 38.43123 -110.06208 29614 ft 509 kts 92°
2026-04-26 17:56 38.43298 -109.97178 29605 ft 510 kts 92°
2026-04-26 17:57 38.43628 -109.79125 29597 ft 509 kts 93°
2026-04-26 17:57 38.43782 -109.70106 29614 ft 509 kts 93°
2026-04-26 17:58 38.44069 -109.52020 29637 ft 511 kts 93°
2026-04-26 17:59 38.44267 -109.38409 29652 ft 512 kts 94°
2026-04-26 17:59 38.44391 -109.29322 29667 ft 513 kts 94°
2026-04-26 18:00 38.44513 -109.20206 29657 ft 513 kts 94°
2026-04-26 18:00 38.44621 -109.11111 29652 ft 513 kts 94°
2026-04-26 18:01 38.44720 -109.02010 29682 ft 514 kts 94°
2026-04-26 18:01 38.44816 -108.92894 29721 ft 514 kts 94°
2026-04-26 18:02 38.44890 -108.85291 29698 ft 518 kts 94°
2026-04-26 18:02 38.44987 -108.74582 29701 ft 521 kts 94°
2026-04-26 18:03 38.45064 -108.65331 29724 ft 522 kts 94°
2026-04-26 18:03 38.45133 -108.56064 29728 ft 522 kts 94°
2026-04-26 18:04 38.45193 -108.46813 29729 ft 521 kts 94°
2026-04-26 18:05 38.45269 -108.33010 29728 ft 517 kts 94°
2026-04-26 18:05 38.45310 -108.23859 29764 ft 516 kts 94°
2026-04-26 18:06 38.45345 -108.14717 29803 ft 514 kts 94°
2026-04-26 18:06 38.45372 -108.05600 29854 ft 514 kts 94°
2026-04-26 18:07 38.45392 -107.96490 29875 ft 514 kts 94°
2026-04-26 18:07 38.45405 -107.87372 29874 ft 514 kts 94°
2026-04-26 18:08 38.45411 -107.78247 29743 ft 515 kts 95°
2026-04-26 18:08 38.45410 -107.69115 29734 ft 515 kts 95°
2026-04-26 18:09 38.45402 -107.59974 29752 ft 515 kts 95°
2026-04-26 18:09 38.45386 -107.50812 29773 ft 518 kts 95°
2026-04-26 18:10 38.45364 -107.41662 29754 ft 520 kts 95°
2026-04-26 18:10 38.45336 -107.32465 29766 ft 517 kts 94°
2026-04-26 18:11 38.45300 -107.23303 29779 ft 515 kts 94°
2026-04-26 18:11 38.45262 -107.14203 29806 ft 512 kts 94°
2026-04-26 18:12 38.45265 -107.05132 29829 ft 513 kts 90°
2026-04-26 18:12 38.46584 -106.96196 29860 ft 512 kts 78°
2026-04-26 18:13 38.48421 -106.87436 29725 ft 510 kts 77°
2026-04-26 18:13 38.50224 -106.78710 29729 ft 507 kts 78°
2026-04-26 18:14 38.51967 -106.69989 29732 ft 506 kts 78°
2026-04-26 18:14 38.53678 -106.61272 29730 ft 506 kts 78°
2026-04-26 18:15 38.55382 -106.52549 29718 ft 506 kts 78°
2026-04-26 18:15 38.57082 -106.43820 29732 ft 507 kts 78°
2026-04-26 18:16 38.58780 -106.35071 29761 ft 507 kts 78°
2026-04-26 18:16 38.61322 -106.21905 29766 ft 510 kts 77°
2026-04-26 18:17 38.63016 -106.13086 29796 ft 512 kts 77°
2026-04-26 18:17 38.64709 -106.04231 29793 ft 514 kts 77°
2026-04-26 18:18 38.66402 -105.95338 29763 ft 515 kts 78°
2026-04-26 18:18 38.68084 -105.86468 29683 ft 516 kts 78°
2026-04-26 18:19 38.69768 -105.77540 29695 ft 516 kts 78°
2026-04-26 18:19 38.71446 -105.68608 29686 ft 517 kts 78°
2026-04-26 18:20 38.73116 -105.59676 29687 ft 514 kts 78°
2026-04-26 18:20 38.74226 -105.53718 29671 ft 514 kts 78°
2026-04-26 18:21 38.76423 -105.41870 29702 ft 513 kts 78°
2026-04-26 18:21 38.78064 -105.32973 29710 ft 513 kts 78°
2026-04-26 18:22 38.79433 -105.25521 29693 ft 513 kts 78°
2026-04-26 18:22 38.81064 -105.16596 29744 ft 514 kts 79°
2026-04-26 18:23 38.82670 -105.07754 29712 ft 511 kts 78°
2026-04-26 18:23 38.84278 -104.98904 29756 ft 508 kts 79°
2026-04-26 18:24 38.85868 -104.90098 29768 ft 505 kts 79°
2026-04-26 18:24 38.87447 -104.81300 29795 ft 507 kts 79°
2026-04-26 18:25 38.89029 -104.72444 29817 ft 510 kts 79°
2026-04-26 18:25 38.90611 -104.63549 29834 ft 512 kts 79°
2026-04-26 18:26 38.92190 -104.54631 29833 ft 513 kts 79°
2026-04-26 18:26 38.93765 -104.45695 29832 ft 513 kts 79°
2026-04-26 18:27 38.95332 -104.36762 29819 ft 513 kts 79°
2026-04-26 18:27 38.96893 -104.27817 29790 ft 513 kts 79°
2026-04-26 18:28 38.98446 -104.18876 29760 ft 513 kts 80°
2026-04-26 18:28 38.99993 -104.09925 29758 ft 513 kts 80°
2026-04-26 18:29 39.01536 -104.00954 29753 ft 514 kts 80°
2026-04-26 18:29 39.03075 -103.91963 29752 ft 515 kts 80°
2026-04-26 18:30 39.04608 -103.82963 29745 ft 515 kts 80°
2026-04-26 18:30 39.06136 -103.73946 29779 ft 517 kts 80°
2026-04-26 18:31 39.07664 -103.64882 29781 ft 519 kts 80°
2026-04-26 18:31 39.09191 -103.55779 29779 ft 521 kts 80°
2026-04-26 18:32 39.10713 -103.46667 29754 ft 521 kts 81°
2026-04-26 18:32 39.12230 -103.37529 29772 ft 523 kts 81°
2026-04-26 18:33 39.13735 -103.28421 29773 ft 524 kts 81°
2026-04-26 18:33 39.15246 -103.19230 29766 ft 524 kts 81°
2026-04-26 18:34 39.16749 -103.10038 29756 ft 525 kts 81°
2026-04-26 18:34 39.18249 -103.00816 29782 ft 526 kts 81°
2026-04-26 18:35 39.19746 -102.91568 29792 ft 528 kts 81°
2026-04-26 18:35 39.21238 -102.82300 29788 ft 528 kts 81°
2026-04-26 18:36 39.22724 -102.73019 29791 ft 529 kts 81°
2026-04-26 18:36 39.24205 -102.63716 29822 ft 530 kts 81°
2026-04-26 18:37 39.25682 -102.54388 29843 ft 531 kts 81°
2026-04-26 18:37 39.27153 -102.45052 29857 ft 531 kts 81°
2026-04-26 18:38 39.28616 -102.35712 29855 ft 531 kts 81°
2026-04-26 18:38 39.30072 -102.26360 29862 ft 532 kts 81°
2026-04-26 18:39 39.31524 -102.16989 29851 ft 532 kts 81°
2026-04-26 18:39 39.32969 -102.07609 29854 ft 532 kts 81°
2026-04-26 18:40 39.34405 -101.98233 29852 ft 532 kts 81°
2026-04-26 18:40 39.35835 -101.88844 29862 ft 532 kts 82°
2026-04-26 18:41 39.37247 -101.79521 29861 ft 533 kts 82°
2026-04-26 18:41 39.38530 -101.70107 29854 ft 530 kts 88°
2026-04-26 18:42 39.38263 -101.60708 29883 ft 521 kts 101°
2026-04-26 18:42 39.37387 -101.51403 29860 ft 522 kts 102°
2026-04-26 18:43 39.36548 -101.42063 29870 ft 523 kts 101°
2026-04-26 18:43 39.35754 -101.32708 29874 ft 524 kts 101°
2026-04-26 18:44 39.34967 -101.23353 29885 ft 523 kts 101°
2026-04-26 18:44 39.34169 -101.14012 29884 ft 523 kts 101°
2026-04-26 18:45 39.33361 -101.04685 29881 ft 522 kts 101°
2026-04-26 18:45 39.32546 -100.95366 29885 ft 522 kts 101°
2026-04-26 18:46 39.31726 -100.86056 29883 ft 522 kts 101°
2026-04-26 18:46 39.30897 -100.76800 29871 ft 522 kts 101°
2026-04-26 18:47 39.30056 -100.67493 29878 ft 522 kts 102°
2026-04-26 18:47 39.29205 -100.58161 29889 ft 524 kts 102°
2026-04-26 18:48 39.28347 -100.48809 29892 ft 525 kts 102°
2026-04-26 18:48 39.27480 -100.39448 29898 ft 525 kts 102°
2026-04-26 18:49 39.26600 -100.30024 29902 ft 526 kts 102°
2026-04-26 18:49 39.25839 -100.20705 29898 ft 529 kts 95°
2026-04-26 18:50 39.26037 -100.11190 29902 ft 530 kts 91°
2026-04-26 18:50 39.26407 -100.01694 29912 ft 529 kts 91°
2026-04-26 18:51 39.26719 -99.92210 29898 ft 529 kts 91°
2026-04-26 18:51 39.26968 -99.82738 29876 ft 528 kts 92°
2026-04-26 18:52 39.27193 -99.73278 29902 ft 527 kts 92°
2026-04-26 18:52 39.27410 -99.63830 29902 ft 526 kts 92°
2026-04-26 18:53 39.27624 -99.54388 29900 ft 526 kts 92°
2026-04-26 18:53 39.27832 -99.44953 29868 ft 526 kts 92°
2026-04-26 18:54 39.28032 -99.35524 29892 ft 525 kts 92°
2026-04-26 18:54 39.28224 -99.26107 29898 ft 525 kts 92°
2026-04-26 18:55 39.28408 -99.16697 29893 ft 525 kts 92°
2026-04-26 18:55 39.28584 -99.07272 29856 ft 525 kts 92°
2026-04-26 18:56 39.28754 -98.97871 29879 ft 524 kts 92°
2026-04-26 18:56 39.28915 -98.88477 29875 ft 524 kts 92°
2026-04-26 18:57 39.29043 -98.80669 29870 ft 523 kts 92°
2026-04-26 18:57 39.29214 -98.69685 29848 ft 523 kts 93°
2026-04-26 18:58 39.29353 -98.60294 29858 ft 523 kts 93°
2026-04-26 18:58 39.29483 -98.50903 29854 ft 523 kts 93°
2026-04-26 18:59 39.29606 -98.41573 29852 ft 523 kts 93°
2026-04-26 18:59 39.29722 -98.32178 29807 ft 523 kts 92°
2026-04-26 19:00 39.29826 -98.22803 29831 ft 522 kts 92°
2026-04-26 19:00 39.29928 -98.13443 29833 ft 522 kts 92°
2026-04-26 19:01 39.30023 -98.04081 29801 ft 522 kts 92°
2026-04-26 19:01 39.30109 -97.94719 29798 ft 520 kts 92°
2026-04-26 19:02 39.30187 -97.85420 29811 ft 516 kts 92°
2026-04-26 19:02 39.30245 -97.77728 29815 ft 515 kts 92°
2026-04-26 19:03 39.30318 -97.66946 29830 ft 513 kts 92°
2026-04-26 19:03 39.30374 -97.57738 29802 ft 513 kts 93°
2026-04-26 19:04 39.30422 -97.48531 29817 ft 513 kts 93°
2026-04-26 19:04 39.30461 -97.39312 29825 ft 514 kts 93°
2026-04-26 19:05 39.30507 -97.25446 29823 ft 516 kts 93°
2026-04-26 19:06 39.30530 -97.16179 29824 ft 516 kts 93°
2026-04-26 19:06 39.30545 -97.06906 29820 ft 517 kts 93°
2026-04-26 19:07 39.30553 -96.97679 29806 ft 517 kts 94°
2026-04-26 19:07 39.30553 -96.88400 29814 ft 517 kts 94°
2026-04-26 19:08 39.30546 -96.79110 29809 ft 519 kts 94°
2026-04-26 19:08 39.30531 -96.69783 29819 ft 521 kts 94°
2026-04-26 19:09 39.30509 -96.60420 29814 ft 523 kts 94°
2026-04-26 19:09 39.30480 -96.51030 29786 ft 523 kts 94°
2026-04-26 19:10 39.30443 -96.41640 29782 ft 524 kts 92°
2026-04-26 19:10 39.30398 -96.32218 29799 ft 525 kts 93°
2026-04-26 19:11 39.30355 -96.24305 29801 ft 527 kts 93°
2026-04-26 19:11 39.30298 -96.14911 29809 ft 527 kts 93°
2026-04-26 19:12 39.30229 -96.05445 29820 ft 528 kts 92°
2026-04-26 19:12 39.30153 -95.95958 29812 ft 529 kts 92°
2026-04-26 19:13 39.30070 -95.86445 29819 ft 531 kts 92°
2026-04-26 19:13 39.29980 -95.76908 29812 ft 531 kts 92°
2026-04-26 19:14 39.29881 -95.67371 29815 ft 530 kts 92°
2026-04-26 19:14 39.29775 -95.57874 29817 ft 528 kts 92°
2026-04-26 19:15 39.29662 -95.48418 29817 ft 527 kts 92°
2026-04-26 19:15 39.29542 -95.39029 29822 ft 526 kts 92°
2026-04-26 19:16 39.29414 -95.29588 29814 ft 526 kts 92°
2026-04-26 19:16 39.29278 -95.20151 29822 ft 526 kts 92°
2026-04-26 19:17 39.29135 -95.10713 29830 ft 526 kts 92°
2026-04-26 19:17 39.28984 -95.01264 29833 ft 527 kts 92°
2026-04-26 19:18 39.28825 -94.91815 29826 ft 526 kts 91°
2026-04-26 19:18 39.28660 -94.82381 29840 ft 525 kts 91°
2026-04-26 19:19 39.28467 -94.72973 29837 ft 524 kts 94°
2026-04-26 19:19 39.27806 -94.63618 29832 ft 523 kts 97°
2026-04-26 19:20 39.26961 -94.54302 29836 ft 522 kts 97°
2026-04-26 19:20 39.26140 -94.45029 29842 ft 519 kts 97°
2026-04-26 19:21 39.25357 -94.35792 29853 ft 517 kts 97°
2026-04-26 19:21 39.24582 -94.26583 29848 ft 516 kts 97°
2026-04-26 19:22 39.23800 -94.17398 29843 ft 515 kts 97°
2026-04-26 19:22 39.23009 -94.08225 29857 ft 514 kts 97°
2026-04-26 19:23 39.22211 -93.99060 29856 ft 514 kts 97°
2026-04-26 19:23 39.21406 -93.89902 29865 ft 514 kts 97°
2026-04-26 19:24 39.20593 -93.80736 29870 ft 515 kts 97°
2026-04-26 19:24 39.19359 -93.66979 29866 ft 515 kts 97°
2026-04-26 19:25 39.18669 -93.59357 29869 ft 516 kts 97°
2026-04-26 19:25 39.17685 -93.48618 29877 ft 516 kts 98°
2026-04-26 19:26 39.16833 -93.39434 29885 ft 516 kts 98°
2026-04-26 19:26 39.15974 -93.30248 29891 ft 516 kts 98°
2026-04-26 19:27 39.15109 -93.21067 29885 ft 516 kts 98°
2026-04-26 19:27 39.14243 -93.11947 29888 ft 516 kts 98°
2026-04-26 19:28 39.13358 -93.02711 29891 ft 516 kts 98°
2026-04-26 19:28 39.12472 -92.93539 29891 ft 516 kts 98°
2026-04-26 19:29 39.11584 -92.84426 29897 ft 517 kts 98°
2026-04-26 19:29 39.10682 -92.75248 29898 ft 516 kts 98°
2026-04-26 19:30 39.09774 -92.66074 29897 ft 516 kts 98°
2026-04-26 19:30 39.09013 -92.58452 29888 ft 517 kts 98°
2026-04-26 19:31 39.07935 -92.47732 29904 ft 517 kts 98°
2026-04-26 19:31 39.07004 -92.38554 29916 ft 517 kts 98°
2026-04-26 19:32 39.06065 -92.29377 29923 ft 517 kts 98°
2026-04-26 19:32 39.05120 -92.20205 29921 ft 517 kts 98°
2026-04-26 19:33 39.04168 -92.11042 29928 ft 517 kts 99°
2026-04-26 19:33 39.03209 -92.01881 29923 ft 517 kts 99°
2026-04-26 19:34 39.02244 -91.92731 29927 ft 516 kts 99°
2026-04-26 19:34 39.01273 -91.83588 29945 ft 515 kts 99°
2026-04-26 19:35 39.00297 -91.74471 29934 ft 514 kts 99°
2026-04-26 19:35 38.99318 -91.65366 29940 ft 514 kts 99°
2026-04-26 19:36 38.98502 -91.57807 29936 ft 514 kts 99°
2026-04-26 19:36 38.97347 -91.47187 29941 ft 512 kts 99°
2026-04-26 19:37 38.96354 -91.38126 29932 ft 511 kts 99°
2026-04-26 19:37 38.95356 -91.29091 29942 ft 511 kts 99°
2026-04-26 19:38 38.94359 -91.20129 29942 ft 510 kts 99°
2026-04-26 19:38 38.93341 -91.11042 29934 ft 510 kts 99°
2026-04-26 19:39 38.92323 -91.02025 29944 ft 511 kts 99°
2026-04-26 19:39 38.91295 -90.92987 29942 ft 512 kts 99°
2026-04-26 19:40 38.90267 -90.84000 29950 ft 513 kts 99°
2026-04-26 19:40 38.89224 -90.74947 29955 ft 513 kts 99°
2026-04-26 19:41 38.88172 -90.65876 29960 ft 514 kts 99°
2026-04-26 19:41 38.87283 -90.58273 29968 ft 515 kts 99°
2026-04-26 19:42 38.86042 -90.47712 29965 ft 516 kts 99°
2026-04-26 19:42 38.84870 -90.38635 29961 ft 515 kts 101°
2026-04-26 19:43 38.83629 -90.29565 29980 ft 517 kts 101°
2026-04-26 19:43 38.82387 -90.20481 29990 ft 518 kts 100°
2026-04-26 19:44 38.81150 -90.11378 29988 ft 518 kts 100°
2026-04-26 19:44 38.79911 -90.02275 29995 ft 519 kts 100°
2026-04-26 19:45 38.78666 -89.93185 29982 ft 517 kts 100°
2026-04-26 19:45 38.77416 -89.84128 29979 ft 515 kts 100°
2026-04-26 19:46 38.76165 -89.75110 29987 ft 514 kts 100°
2026-04-26 19:46 38.74916 -89.66162 29992 ft 513 kts 100°
2026-04-26 19:47 38.74072 -89.60149 29982 ft 513 kts 100°
2026-04-26 19:47 38.72384 -89.48184 29986 ft 513 kts 100°
2026-04-26 19:48 38.71109 -89.39206 29987 ft 513 kts 101°
2026-04-26 19:48 38.69825 -89.30221 29987 ft 513 kts 101°
2026-04-26 19:49 38.68536 -89.21245 30000 ft 512 kts 100°
2026-04-26 19:49 38.67243 -89.12285 29989 ft 511 kts 101°
2026-04-26 19:50 38.65946 -89.03354 29995 ft 510 kts 101°
2026-04-26 19:50 38.64647 -88.94442 29997 ft 509 kts 100°
2026-04-26 19:51 38.63340 -88.85514 29581 ft 512 kts 100°
2026-04-26 19:51 38.62684 -88.81047 29268 ft 511 kts 100°
2026-04-26 19:51 38.62026 -88.76578 28939 ft 511 kts 100°
2026-04-26 19:52 38.61368 -88.72123 28622 ft 510 kts 100°
2026-04-26 19:52 38.60708 -88.67667 28310 ft 510 kts 100°
2026-04-26 19:52 38.60047 -88.63215 27999 ft 509 kts 100°
2026-04-26 19:52 38.59385 -88.58771 27691 ft 509 kts 100°
2026-04-26 19:53 38.58723 -88.54335 27388 ft 508 kts 101°
2026-04-26 19:53 38.58059 -88.49901 27085 ft 508 kts 101°
2026-04-26 19:53 38.57393 -88.45463 26783 ft 508 kts 100°
2026-04-26 19:53 38.56727 -88.41030 26488 ft 508 kts 100°
2026-04-26 19:54 38.56059 -88.36607 26191 ft 507 kts 100°
2026-04-26 19:54 38.55390 -88.32191 25900 ft 505 kts 100°
2026-04-26 19:54 38.54721 -88.27787 25604 ft 503 kts 100°
2026-04-26 19:54 38.54056 -88.23416 25316 ft 500 kts 100°
2026-04-26 19:55 38.53402 -88.19129 25032 ft 497 kts 100°
2026-04-26 19:55 38.52742 -88.14816 24740 ft 493 kts 101°
2026-04-26 19:55 38.52077 -88.10477 24469 ft 490 kts 101°
2026-04-26 19:55 38.51433 -88.06284 24205 ft 486 kts 100°
2026-04-26 19:56 38.50774 -88.02007 23927 ft 483 kts 100°
2026-04-26 19:56 38.50136 -87.97876 23659 ft 479 kts 100°
2026-04-26 19:56 38.49492 -87.93714 23358 ft 476 kts 100°
2026-04-26 19:56 38.48853 -87.89580 23038 ft 474 kts 101°
2026-04-26 19:57 38.48422 -87.86793 22819 ft 472 kts 101°
2026-04-26 19:57 38.47582 -87.81372 22404 ft 469 kts 101°
2026-04-26 19:57 38.46950 -87.77305 22096 ft 467 kts 101°
2026-04-26 19:57 38.46523 -87.74558 21884 ft 465 kts 101°
2026-04-26 19:58 38.45691 -87.69222 21470 ft 462 kts 101°
2026-04-26 19:58 38.45062 -87.65205 21165 ft 457 kts 101°
2026-04-26 19:58 38.44646 -87.62551 20943 ft 447 kts 101°
2026-04-26 19:58 38.44048 -87.58740 20644 ft 431 kts 102°
2026-04-26 19:59 38.43469 -87.55058 20350 ft 416 kts 102°
2026-04-26 19:59 38.42906 -87.51493 20041 ft 404 kts 102°
2026-04-26 19:59 38.42357 -87.48017 19745 ft 397 kts 102°
2026-04-26 19:59 38.41812 -87.44581 19394 ft 394 kts 102°
2026-04-26 20:00 38.41271 -87.41169 19031 ft 391 kts 102°
2026-04-26 20:00 38.40732 -87.37780 18691 ft 389 kts 103°
2026-04-26 20:00 38.40194 -87.34407 18359 ft 387 kts 103°
2026-04-26 20:00 38.39666 -87.31100 17970 ft 385 kts 103°
2026-04-26 20:01 38.39132 -87.27764 17577 ft 383 kts 103°
2026-04-26 20:01 38.38601 -87.24450 17199 ft 381 kts 103°
2026-04-26 20:01 38.38071 -87.21147 16799 ft 379 kts 103°
2026-04-26 20:01 38.37545 -87.17869 16429 ft 377 kts 103°
2026-04-26 20:02 38.37020 -87.14612 16052 ft 374 kts 104°
2026-04-26 20:02 38.36497 -87.11370 15686 ft 372 kts 104°
2026-04-26 20:02 38.35967 -87.08170 15321 ft 367 kts 106°
2026-04-26 20:02 38.35519 -87.06104 15080 ft 363 kts 109°
2026-04-26 20:03 38.34448 -87.02071 14600 ft 355 kts 112°
2026-04-26 20:03 38.33622 -86.99137 14237 ft 350 kts 112°
2026-04-26 20:03 38.32807 -86.96233 13889 ft 346 kts 112°
2026-04-26 20:03 38.32012 -86.93359 13491 ft 342 kts 112°
2026-04-26 20:04 38.31239 -86.90528 13106 ft 335 kts 112°
2026-04-26 20:04 38.30484 -86.87745 12707 ft 329 kts 112°
2026-04-26 20:04 38.29745 -86.85012 12334 ft 323 kts 112°
2026-04-26 20:04 38.29023 -86.82339 12035 ft 316 kts 112°
2026-04-26 20:05 38.28316 -86.79722 11726 ft 309 kts 112°
2026-04-26 20:05 38.27626 -86.77165 11429 ft 303 kts 112°
2026-04-26 20:05 38.26946 -86.74654 11132 ft 297 kts 112°
2026-04-26 20:05 38.26279 -86.72192 10864 ft 290 kts 112°
2026-04-26 20:06 38.25661 -86.69808 10580 ft 280 kts 110°
2026-04-26 20:06 38.25137 -86.67442 10317 ft 275 kts 109°
2026-04-26 20:06 38.24646 -86.65112 10073 ft 272 kts 109°
2026-04-26 20:06 38.24156 -86.62783 9840 ft 273 kts 109°
2026-04-26 20:07 38.23664 -86.60454 9576 ft 272 kts 109°
2026-04-26 20:07 38.23171 -86.58128 9326 ft 272 kts 109°
2026-04-26 20:07 38.22677 -86.55809 9052 ft 270 kts 108°
2026-04-26 20:07 38.22199 -86.53559 8782 ft 257 kts 108°
2026-04-26 20:08 38.21740 -86.51415 8519 ft 246 kts 108°
2026-04-26 20:08 38.21298 -86.49359 8263 ft 236 kts 108°
2026-04-26 20:08 38.20873 -86.47384 8016 ft 228 kts 108°
2026-04-26 20:08 38.20461 -86.45471 7757 ft 221 kts 108°
2026-04-26 20:09 38.20060 -86.43617 7511 ft 215 kts 108°
2026-04-26 20:09 38.19667 -86.41799 7278 ft 212 kts 108°
2026-04-26 20:09 38.19276 -86.39998 7028 ft 210 kts 109°
2026-04-26 20:09 38.18893 -86.38235 6796 ft 209 kts 108°
2026-04-26 20:10 38.18507 -86.36455 6558 ft 208 kts 108°
2026-04-26 20:10 38.18123 -86.34687 6318 ft 208 kts 108°
2026-04-26 20:10 38.17737 -86.32916 6064 ft 207 kts 108°
2026-04-26 20:10 38.17353 -86.31150 5821 ft 208 kts 107°
2026-04-26 20:11 38.16970 -86.29387 5569 ft 206 kts 107°
2026-04-26 20:11 38.16591 -86.27644 5354 ft 202 kts 107°
2026-04-26 20:11 38.16223 -86.25954 5101 ft 195 kts 107°
2026-04-26 20:12 38.15511 -86.22692 4612 ft 189 kts 106°
2026-04-26 20:12 38.15163 -86.21097 4348 ft 186 kts 106°
2026-04-26 20:12 38.14823 -86.19541 4132 ft 182 kts 106°
2026-04-26 20:12 38.14479 -86.17990 3895 ft 184 kts 105°
2026-04-26 20:13 38.14136 -86.16427 3612 ft 181 kts 103°
2026-04-26 20:13 38.13806 -86.14912 3375 ft 175 kts 103°
2026-04-26 20:13 38.13489 -86.13449 3147 ft 171 kts 104°
2026-04-26 20:13 38.13171 -86.11998 2843 ft 169 kts 104°
2026-04-26 20:14 38.12857 -86.10562 2655 ft 168 kts 102°
2026-04-26 20:14 38.12544 -86.09104 2585 ft 177 kts 103°
2026-04-26 20:14 38.12214 -86.07617 2487 ft 172 kts 104°
2026-04-26 20:14 38.11903 -86.06214 2527 ft 158 kts 103°
2026-04-26 20:15 38.11610 -86.04877 2546 ft 159 kts 104°
2026-04-26 20:15 38.11310 -86.03525 2506 ft 156 kts 104°
2026-04-26 20:15 38.11022 -86.02251 2479 ft 144 kts 103°
2026-04-26 20:15 38.10751 -86.01006 2505 ft 145 kts 104°
2026-04-26 20:16 38.10342 -85.99832 2493 ft 145 kts 124°
2026-04-26 20:16 38.09636 -85.98924 2488 ft 145 kts 140°
2026-04-26 20:16 38.08678 -85.98394 2493 ft 155 kts 169°
2026-04-26 20:16 38.07595 -85.98284 2524 ft 158 kts 171°
2026-04-26 20:17 38.06504 -85.98144 2490 ft 157 kts 174°
2026-04-26 20:17 38.05416 -85.98068 2495 ft 156 kts 174°
2026-04-26 20:17 38.04335 -85.97989 2493 ft 156 kts 174°
2026-04-26 20:17 38.03616 -85.97934 2499 ft 157 kts 174°
2026-04-26 20:18 38.02149 -85.97826 2486 ft 158 kts 173°
2026-04-26 20:18 38.01060 -85.97746 2484 ft 155 kts 173°
2026-04-26 20:18 37.99976 -85.97665 2432 ft 157 kts 173°
2026-04-26 20:18 37.98893 -85.97567 2253 ft 155 kts 171°
2026-04-26 20:19 37.97874 -85.97494 2043 ft 142 kts 173°
2026-04-26 20:19 37.96903 -85.97435 1866 ft 136 kts 170°
2026-04-26 20:19 37.95961 -85.97365 1680 ft 137 kts 172°
2026-04-26 20:19 37.95028 -85.97295 1506 ft 137 kts 173°
2026-04-26 20:20 37.94062 -85.97223 1318 ft 140 kts 172°
2026-04-26 20:20 37.93099 -85.97151 1164 ft 141 kts 173°
2026-04-26 20:20 37.92107 -85.97088 946 ft 139 kts 173°
2026-04-26 20:20 37.91200 -85.97017 766 ft 126 kts 171°
2026-04-26 20:21 37.90416 -85.96954 740 ft 88 kts 178°
2026-04-26 20:21 37.90163 -85.96940 738 ft 15 kts 185°
2026-04-26 20:21 37.90114 -85.96935 738 ft 1 kts 74°
2026-04-26 20:21 37.90132 -85.96930 738 ft 6 kts 359°
2026-04-26 20:22 37.90179 -85.96926 738 ft 6 kts 31°
2026-04-26 20:22 37.90198 -85.96882 738 ft 5 kts 55°
2026-04-26 20:22 37.90203 -85.96874 738 ft 0 kts 53°
2026-04-26 20:23 37.90203 -85.96873 736 ft 0 kts 53°
2026-04-26 20:23 37.90208 -85.96865 737 ft 1 kts 54°
2026-04-26 20:23 37.90213 -85.96856 738 ft 1 kts 53°
2026-04-26 20:24 37.90240 -85.96817 737 ft 7 kts 48°
2026-04-26 20:24 37.90270 -85.96793 739 ft 0 kts 15°
2026-04-26 20:24 37.90276 -85.96792 739 ft 3 kts 10°
2026-04-26 20:24 37.90302 -85.96791 739 ft 13 kts 360°
2026-04-26 20:25 37.90371 -85.96795 741 ft 10 kts 354°
2026-04-26 20:25 37.90411 -85.96804 741 ft 8 kts 351°
2026-04-26 20:25 37.90462 -85.96812 742 ft 0 kts 355°
2026-04-26 20:25 37.90470 -85.96812 743 ft 2 kts 356°
2026-04-26 20:26 37.90516 -85.96791 743 ft 13 kts 34°
2026-04-26 20:26 37.90545 -85.96757 743 ft 0 kts 36°
2026-04-26 20:26 37.90551 -85.96749 741 ft 1 kts 50°
2026-04-26 20:26 37.90566 -85.96699 743 ft 6 kts 75°
2026-04-26 20:27 37.90582 -85.96643 742 ft 7 kts 66°
2026-04-26 20:27 37.90600 -85.96591 743 ft 6 kts 74°
2026-04-26 20:27 37.90595 -85.96566 742 ft 0 kts 123°
2026-04-26 20:28 37.90592 -85.96564 742 ft 1 kts 136°
2026-04-26 20:28 37.90584 -85.96561 741 ft 2 kts 167°
2026-04-26 20:28 37.90571 -85.96562 742 ft 3 kts 188°
2026-04-26 20:28 37.90550 -85.96568 742 ft 0 kts 196°
2026-04-26 20:29 37.90540 -85.96572 742 ft 1 kts 198°
2026-04-26 20:29 37.90531 -85.96576 742 ft 0 kts 199°